This is the latest recevied weather packets stored in our database for station/object SV9TNF-1. If no packets are shown the sender has not sent any weather packets the latest 10 day(s).
| Time | Temp. | Humidity | Pressure | Rain* | Wind** | Luminosity | Snow |
|---|---|---|---|---|---|---|---|
| 1777872616 | 14.44° C | 61% | 1007.8 hPa | 0 mm | 4.02 m/s, 326° | - | - |
| 1777872315 | 14.44° C | 61% | 1007.8 hPa | 0 mm | 6.26 m/s, 337° | - | - |
| 1777872015 | 14.44° C | 61% | 1007.8 hPa | 0 mm | 3.58 m/s, 310° | - | - |
| 1777871716 | 13.89° C | 63% | 1007.8 hPa | 0 mm | 6.26 m/s, 88° | - | - |
| 1777871415 | 13.89° C | 62% | 1007.8 hPa | 0 mm | 4.47 m/s, 314° | - | - |
| 1777871115 | 13.33° C | 63% | 1007.8 hPa | 0 mm | 3.13 m/s, 329° | - | - |
| 1777870815 | 13.33° C | 63% | 1007.5 hPa | 0 mm | 2.68 m/s, 166° | - | - |
| 1777870514 | 13.33° C | 65% | 1007.5 hPa | 0 mm | 1.79 m/s, 284° | - | - |
| 1777870214 | 13.33° C | 68% | 1007.5 hPa | 0 mm | 0 m/s | - | - |
| 1777869914 | 13.33° C | 67% | 1007.5 hPa | 0 mm | 2.24 m/s, 144° | - | - |
| 1777869614 | 13.33° C | 63% | 1007.5 hPa | 0 mm | 1.79 m/s, 92° | - | - |
| 1777869314 | 12.78° C | 66% | 1006.8 hPa | 0 mm | 6.26 m/s, 10° | - | - |
| 1777869014 | 12.78° C | 67% | 1006.8 hPa | 0 mm | 1.79 m/s, 162° | - | - |
| 1777868714 | 12.78° C | 65% | 1006.8 hPa | 0 mm | 3.58 m/s, 124° | - | - |
| 1777868414 | 11.67° C | 72% | 1006.8 hPa | 0 mm | 3.58 m/s, 161° | - | - |
| 1777868114 | 11.67° C | 68% | 1006.8 hPa | 0 mm | 3.58 m/s, 200° | - | - |
| 1777867814 | 11.67° C | 68% | 1006.8 hPa | 0 mm | 4.02 m/s, 352° | - | - |
| 1777867513 | 11.67° C | 70% | 1006.8 hPa | 0 mm | 2.68 m/s, 146° | - | - |
| 1777867213 | 11.67° C | 70% | 1006.4 hPa | 0 mm | 4.02 m/s, 320° | - | - |
| 1777866913 | 11.67° C | 71% | 1006.4 hPa | 0 mm | 4.92 m/s, 43° | - | - |
| 1777866613 | 11.11° C | 72% | 1006.4 hPa | 0 mm | 2.68 m/s, 318° | - | - |
| 1777866313 | 11.11° C | 71% | 1006.4 hPa | 0 mm | 6.71 m/s, 279° | - | - |
| 1777866014 | 11.11° C | 74% | 1006.4 hPa | 0 mm | 1.79 m/s, 129° | - | - |
| 1777865713 | 11.11° C | 73% | 1006.4 hPa | 0 mm | 2.68 m/s, 357° | - | - |
| 1777865413 | 11.11° C | 73% | 1006.4 hPa | 0 mm | 4.47 m/s, 245° | - | - |
* Rain latest hour (hover to see other rain measurements)
** Current wind speed in m/s (hover to see current wind gust speed)